[[{"header":{"parameterUnit":"m.s-1","parameterCategory":1,"la1":30.2991,"la2":30.254,"lo1":-89.0895,"lo2":-89.0444,"dy":0.0017,"dx":0.0017,"nx":28,"ny":28,"refTime":"2024-09-25T21:00:00:Z","depth":0,"parameterNumber":2,"parameterNumberName":"U-component_of_WINDS"},"data":[0,0,0,0,0,0,0,0,0,0,0,0,0,0,0,0,0,0,0,0,0,0,0,0,0,0,0,0,0,0,0,0,0,0,0,0,0,0,0,0,0,0,0,0,0,0,0,0,0,0,0,0,0,0,0,0,0,0,-1.8742,-1.8744,0,-1.8925,-1.8927,-1.8929,-1.8919,-1.8916,-1.8913,-1.8911,-1.9103,-1.911,-1.9118,0,0,0,0,0,0,0,0,0,0,0,0,0,-1.8387,-1.8394,-1.8742,-1.8744,-1.8746,-1.8925,-1.8927,-1.893,-1.8919,-1.8916,-1.8913,-1.891,-1.91,-1.9109,-1.9118,0,0,0,0,0,0,0,0,0,0,0,0,0,-1.8553,-1.8396,-1.8741,-1.8763,-1.8766,-1.8924,-1.8927,-1.893,-1.892,-1.8916,-1.8912,-1.8908,-1.9097,-1.9108,-1.912,-1.927,0,0,-1.9154,-1.9159,0,0,0,0,0,0,0,0,-1.8544,-1.8566,-1.8757,-1.8761,-1.8766,-1.8895,-1.8873,-1.9044,-1.8921,-1.8862,-1.8911,-1.8906,-1.9037,-1.9053,-1.9097,-1.9279,-1.9287,-1.9155,-1.9162,-1.9167,-1.917,0,0,0,0,0,0,0,-1.8532,-1.8558,-1.8814,-1.876,-1.8765,-1.8764,-1.8783,-1.8905,-1.897,-1.8867,-1.8866,-1.8888,-1.9039,-1.9086,-1.9101,-1.929,-1.9155,-1.9165,-1.9172,-1.9177,-1.9607,-1.9611,0,0,0,0,0,0,-1.8515,-1.8549,-1.8809,-1.882,-1.8642,-1.8774,-1.8795,-1.8858,-1.8968,-1.8981,-1.8891,-1.8887,-1.9068,-1.9088,-1.9108,-1.9293,-1.9167,-1.9178,-1.9184,-1.9602,-1.9608,-1.9613,0,0,0,0,0,0,-1.8508,-1.8539,-1.8801,-1.8684,-1.8718,-1.8784,-1.8854,-1.8863,-1.891,-1.8987,-1.8999,-1.8927,-1.9066,-1.9092,-1.923,-1.9299,-1.9183,-1.9193,-1.9597,-1.9604,-1.961,-1.9663,0,0,0,0,0,0,-1.8498,-1.8536,-1.8593,-1.8686,-1.8724,-1.8919,-1.8858,-1.887,-1.8929,-1.8925,-1.9023,-1.9036,-1.9065,-1.9213,-1.9241,-1.9313,-1.9202,-1.9591,-1.96,-1.9608,-1.9655,-1.9671,-1.9684,0,0,0,0,0,-1.8485,-1.8601,-1.8596,-1.8627,-1.8796,-1.8923,-1.8945,-1.8975,-1.8935,-1.8993,-1.9043,-1.9033,-1.9286,-1.9227,-1.9259,-1.9335,-1.9587,-1.9597,-1.9607,-1.9649,-1.9668,-1.9684,0,0,0,0,0,0,-1.8517,-1.8614,-1.8609,-1.8758,-1.8832,-1.8921,-1.8996,-1.8993,-1.9082,-1.9075,-1.9108,-1.9131,-1.927,-1.9316,-1.9248,-1.9487,-1.9432,-1.9449,-1.9452,-1.9471,-1.9485,-1.9472,-1.9212,0,0,0,0,0,-1.854,-1.8634,-1.8714,-1.8838,-1.8876,-1.8929,-1.8986,-1.9002,-1.9081,-1.9113,-1.9172,-1.925,-1.9348,-1.9411,-1.9505,-1.9661,-1.9684,-1.9729,-1.9743,-1.9755,-1.977,-1.9858,-1.988,-1.9647,-1.9647,-1.9646,0,0,-1.8592,-1.8656,-1.8714,-1.8846,-1.8906,-1.9004,-1.8956,-1.9061,-1.9135,-1.9129,-1.9264,-1.931,-1.9399,-1.9547,-1.9616,-1.959,-1.9839,-1.9768,-1.9776,-1.9786,-1.9871,-1.9893,-1.9912,-1.9654,-1.9652,-1.9651,0,0,-1.8735,-1.8792,-1.8903,-1.8963,-1.9053,-1.9088,-1.9114,-1.9204,-1.9234,-1.9369,-1.9367,-1.9455,-1.9622,-1.9686,-1.9741,-1.9908,-1.9904,-1.9938,-2.0014,-2.0099,-2.0118,-2.0134,-2.0196,-2.0218,-1.9952,-1.9952,-1.9953,0,-1.8788,-1.8935,-1.896,-1.9067,-1.9126,-1.9123,-1.9236,-1.9294,-1.9411,-1.9452,-1.9421,-1.9631,-1.9691,-1.9855,-1.9896,-1.9939,-1.9972,-1.9928,-2.0112,-2.0129,-2.0145,-2.0205,-2.0228,-1.9956,-1.9956,-1.9955,-1.9955,0,-1.8996,-1.9098,-1.9176,-1.9288,-1.9356,-1.9465,-1.9509,-1.9574,-1.9584,-1.9623,-1.9761,-1.9832,-1.9941,-1.9981,-1.9992,-2.0147,-2.0129,-2.0105,-2.005,-2.0171,-2.0228,-2.0251,-1.9962,-1.996,-1.9959,-1.9958,0,0,-1.9167,-1.9291,-1.932,-1.9371,-1.9469,-1.9549,-1.9659,-1.9764,-1.9821,-1.9901,-1.9995,-2.0136,-2.0114,-2.0176,-2.0194,-2.0268,-2.0399,-2.0236,-2.0238,-2.0266,-2.0578,-2.0598,-2.0623,-2.0395,-2.04,-2.0403,-2.0571,0,-1.9323,-1.9516,-1.9543,-1.9714,-1.981,-1.9808,-1.9903,-1.9975,-2.0014,-2.0102,-2.0144,-2.0245,-2.0207,-2.0245,-2.0318,-2.0368,-2.0463,-2.0356,-2.0486,-2.049,-2.0467,-2.0653,-2.0674,-2.0829,-2.0593,-2.0597,-2.06,0,-1.9532,-1.9617,-1.9798,-1.9884,-1.9925,-2.001,-2.011,-2.0192,-2.0274,-2.0297,-2.0366,-2.0375,-2.049,-2.0428,-2.0588,-2.0515,-2.0569,-2.0602,-2.0608,-2.0624,-2.0555,-2.0677,-2.0879,-2.0904,-2.0635,-2.0632,-2.0629,0,-1.9642,-1.9801,-1.993,-1.9974,-2.0077,-2.0138,-2.0184,-2.0261,-2.0323,-2.041,-2.0451,-2.055,-2.0605,-2.0682,-2.0718,-2.0669,-2.0877,-2.0817,-2.0902,-2.0901,-2.0948,-2.0945,-2.1165,-2.0978,-2.0978,-2.0977,-2.0977,0,-1.9815,-1.9926,-1.9981,-2.0061,-2.0186,-2.0216,-2.0339,-2.0384,-2.0453,-2.0542,-2.0546,-2.063,-2.0671,-2.0762,-2.079,-2.092,-2.0944,-2.0968,-2.0975,-2.097,-2.0967,-2.1008,-2.0999,-2.0983,-2.0982,-2.0981,-2.098,0,-1.996,-2.0001,-2.0142,-2.0228,-2.0252,-2.0341,-2.0415,-2.0494,-2.053,-2.0644,-2.0673,-2.0732,-2.0839,-2.0881,-2.1013,-2.1032,-2.1183,-2.118,-2.1155,-2.1158,-2.124,-2.1233,-2.1497,-2.1534,-2.132,-2.1322,-2.1323,0,-2.007,-2.0155,-2.025,-2.031,-2.0357,-2.0453,-2.0516,-2.0548,-2.0614,-2.0713,-2.078,-2.0887,-2.0974,-2.1146,-2.1202,-2.1303,-2.1304,-2.1389,-2.1319,-2.1312,-2.1309,-2.1304,-2.1314,-2.1403,-2.1405,-2.1407,-2.1409,0,-2.026,-2.0276,-2.0366,-2.0463,-2.0538,-2.0616,-2.0692,-2.0741,-2.0785,-2.0859,-2.0968,-2.1035,-2.1169,-2.1276,-2.1379,-2.1428,-2.1428,-2.1429,-2.1455,-2.1452,-2.1435,-2.1448,-2.1194,-2.1424,-2.1423,-2.1422,-2.1421,-2.142,-2.0393,-2.047,-2.0549,-2.0649,-2.0709,-2.078,-2.0858,-2.0905,-2.0996,-2.1107,-2.112,-2.1238,-2.1318,-2.1457,-2.151,-2.1604,-2.1582,-2.1618,-2.1627,-2.1637,-2.1644,-2.1417,-2.1622,-2.1622,-2.1622,-2.1621,-2.1621,0,-2.0587,-2.0637,-2.0728,-2.0835,-2.0914,-2.0902,-2.0986,-2.1054,-2.1157,-2.1231,-2.1317,-2.1443,-2.1546,-2.161,-2.1714,-2.1777,-2.1779,-2.1804,-2.1801,-2.1813,-2.1656,-2.1625,-2.18,-2.18,-2.18,-2.18,-2.18,-2.18,-2.0697,-2.0827,-2.0852,-2.1012,-2.1061,-2.1176,-2.1225,-2.1292,-2.1351,-2.1491,-2.1577,-2.1616,-2.1687,-2.1797,-2.1892,-2.1907,-2.1947,-2.1974,-2.1989,-2.1842,-2.1824,-2.1806,-2.1777,-2.1982,-2.1982,-2.2138,-2.214,-2.2141]},{"header":{"parameterUnit":"m.s-1","parameterCategory":1,"la1":30.2991,"la2":30.254,"lo1":-89.0895,"lo2":-89.0444,"dy":0.0017,"dx":0.0017,"nx":28,"ny":28,"refTime":"2024-09-25T21:00:00:Z","depth":0,"parameterNumber":3,"parameterNumberName":"V-component_of_WINDS"},"data":[0,0,0,0,0,0,0,0,0,0,0,0,0,0,0,0,0,0,0,0,0,0,0,0,0,0,0,0,0,0,0,0,0,0,0,0,0,0,0,0,0,0,0,0,0,0,0,0,0,0,0,0,0,0,0,0,0,0,-6.9021,-6.9022,0,-6.9096,-6.9097,-6.9098,-6.8995,-6.8991,-6.8987,-6.8984,-6.9056,-6.9062,-6.9067,0,0,0,0,0,0,0,0,0,0,0,0,0,-6.8782,-6.8787,-6.9021,-6.9022,-6.9023,-6.9096,-6.9097,-6.9098,-6.8995,-6.8991,-6.8986,-6.8982,-6.9055,-6.9061,-6.9067,0,0,0,0,0,0,0,0,0,0,0,0,0,-6.8875,-6.8789,-6.9021,-6.8981,-6.8978,-6.9096,-6.9097,-6.9098,-6.8996,-6.8991,-6.8985,-6.898,-6.9053,-6.906,-6.9068,-6.9228,0,0,-6.9093,-6.9096,0,0,0,0,0,0,0,0,-6.887,-6.8884,-6.8985,-6.8984,-6.8981,-6.9031,-6.904,-6.9142,-6.8998,-6.8989,-6.8984,-6.8977,-6.9052,-6.906,-6.9086,-6.9232,-6.9235,-6.9094,-6.9098,-6.9102,-6.9104,0,0,0,0,0,0,0,-6.8863,-6.888,-6.905,-6.8987,-6.8984,-6.8957,-6.8964,-6.9058,-6.905,-6.8989,-6.8982,-6.8993,-6.9049,-6.9078,-6.9087,-6.9236,-6.9093,-6.91,-6.9105,-6.9109,-6.9515,-6.9521,0,0,0,0,0,0,-6.8862,-6.8875,-6.9048,-6.9053,-6.8911,-6.8966,-6.8973,-6.902,-6.9049,-6.9048,-6.8997,-6.8988,-6.9067,-6.9077,-6.9089,-6.9278,-6.9102,-6.9109,-6.9114,-6.9509,-6.9517,-6.9523,0,0,0,0,0,0,-6.8858,-6.8879,-6.9045,-6.8962,-6.8981,-6.8976,-6.9029,-6.9024,-6.9053,-6.9055,-6.9053,-6.9029,-6.9063,-6.9078,-6.9194,-6.9279,-6.9113,-6.912,-6.9502,-6.9512,-6.952,-6.9657,0,0,0,0,0,0,-6.8851,-6.8878,-6.894,-6.8964,-6.8986,-6.9152,-6.9034,-6.903,-6.9068,-6.9056,-6.9084,-6.9083,-6.906,-6.9183,-6.9203,-6.9287,-6.9127,-6.9495,-6.9506,-6.9517,-6.9645,-6.967,-6.9691,0,0,0,0,0,-6.8843,-6.8975,-6.8944,-6.8965,-6.9064,-6.9157,-6.9169,-6.9141,-6.9075,-6.9137,-6.9138,-6.9082,-6.9266,-6.9196,-6.9217,-6.9305,-6.9489,-6.9503,-6.9516,-6.9635,-6.9665,-6.969,0,0,0,0,0,0,-6.8959,-6.8977,-6.8943,-6.9087,-6.9121,-6.9139,-6.9216,-6.9174,-6.9226,-6.9213,-6.9174,-6.9182,-6.9307,-6.9317,-6.9238,-6.9461,-6.9367,-6.9385,-6.9449,-6.9478,-6.95,-6.9495,-6.9133,0,0,0,0,0,-6.9001,-6.9077,-6.9088,-6.9213,-6.9233,-6.9222,-6.9261,-6.9237,-6.927,-6.9284,-6.9293,-6.9327,-6.9391,-6.9435,-6.9495,-6.9646,-6.965,-6.9716,-6.9739,-6.9758,-6.9774,-6.9854,-6.9883,-6.9567,-6.9567,-6.9567,0,0,-6.9089,-6.9109,-6.9158,-6.9237,-6.9261,-6.9339,-6.9235,-6.9321,-6.9378,-6.9296,-6.9408,-6.9416,-6.945,-6.9585,-6.9644,-6.9597,-6.9862,-6.9775,-6.979,-6.9796,-6.9871,-6.9901,-6.9927,-6.9576,-6.9575,-6.9573,0,0,-6.9289,-6.9312,-6.9419,-6.9445,-6.9483,-6.9475,-6.9501,-6.9525,-6.9528,-6.964,-6.958,-6.9646,-6.9759,-6.9786,-6.9814,-7.0024,-6.9975,-7.0044,-7.0164,-7.0242,-7.0267,-7.0289,-7.0363,-7.039,-7.0061,-7.0061,-7.0061,0,-6.9393,-6.951,-6.9479,-6.957,-6.9606,-6.9537,-6.9644,-6.967,-6.9725,-6.9751,-6.9698,-6.9838,-6.9856,-6.9996,-7.0047,-7.0073,-7.01,-7.0041,-7.0266,-7.0288,-7.0307,-7.0378,-7.0406,-7.0069,-7.0068,-7.0067,-7.0067,0,-6.9636,-6.9717,-6.9798,-6.9855,-6.99,-6.9999,-6.9981,-7.003,-7.0001,-6.9998,-7.0112,-7.0131,-7.0194,-7.0225,-7.0197,-7.036,-7.033,-7.0272,-7.0177,-7.0346,-7.0412,-7.0439,-7.0081,-7.0078,-7.0076,-7.0074,0,0,-6.9911,-6.995,-6.998,-7.0005,-7.0041,-7.0103,-7.0197,-7.026,-7.0302,-7.0342,-7.042,-7.0517,-7.0464,-7.0496,-7.0471,-7.0539,-7.0704,-7.0473,-7.0473,-7.0515,-7.0884,-7.0927,-7.0959,-7.0671,-7.0676,-7.068,-7.0881,0,-7.0111,-7.0277,-7.0252,-7.0411,-7.0485,-7.042,-7.0502,-7.0533,-7.0532,-7.0593,-7.0591,-7.0661,-7.0586,-7.0605,-7.067,-7.067,-7.0777,-7.0655,-7.0742,-7.0745,-7.0736,-7.0993,-7.104,-7.1228,-7.0906,-7.091,-7.0914,0,-7.0366,-7.0418,-7.0585,-7.061,-7.064,-7.0715,-7.077,-7.083,-7.0862,-7.0856,-7.0893,-7.0855,-7.0947,-7.0851,-7.0977,-7.0895,-7.0928,-7.0934,-7.094,-7.0947,-7.084,-7.1007,-7.1288,-7.1316,-7.0954,-7.095,-7.0948,0,-7.055,-7.0661,-7.0775,-7.0798,-7.083,-7.0884,-7.0899,-7.0926,-7.0965,-7.1013,-7.1037,-7.1095,-7.1126,-7.117,-7.1148,-7.108,-7.1278,-7.118,-7.1275,-7.1276,-7.132,-7.1317,-7.161,-7.1342,-7.1341,-7.1341,-7.134,0,-7.0776,-7.0881,-7.0858,-7.0929,-7.1044,-7.1013,-7.1127,-7.1134,-7.1158,-7.1228,-7.1174,-7.124,-7.1207,-7.1269,-7.1252,-7.1359,-7.1373,-7.137,-7.1365,-7.1376,-7.1376,-7.1397,-7.1383,-7.1348,-7.1347,-7.1345,-7.1344,0,-7.1002,-7.0991,-7.1111,-7.1132,-7.1139,-7.1223,-7.1239,-7.1304,-7.1299,-7.1387,-7.1406,-7.1398,-7.1469,-7.1451,-7.1528,-7.1516,-7.1651,-7.1629,-7.1641,-7.1636,-7.1732,-7.1723,-7.2048,-7.2089,-7.1795,-7.1798,-7.18,0,-7.1147,-7.1226,-7.1256,-7.1299,-7.1319,-7.139,-7.143,-7.1401,-7.1445,-7.1487,-7.1547,-7.1614,-7.1666,-7.1782,-7.1782,-7.184,-7.1818,-7.1928,-7.1827,-7.1835,-7.182,-7.1815,-7.1823,-7.1948,-7.1952,-7.1954,-7.1957,0,-7.1405,-7.1396,-7.1457,-7.1516,-7.1566,-7.1611,-7.165,-7.1688,-7.1662,-7.1714,-7.1787,-7.1827,-7.1906,-7.1973,-7.2026,-7.2039,-7.1994,-7.1989,-7.2014,-7.2026,-7.203,-7.2029,-7.1696,-7.1981,-7.1979,-7.1977,-7.1976,-7.1975,-7.1595,-7.1662,-7.1694,-7.1763,-7.179,-7.1828,-7.189,-7.1893,-7.1954,-7.2018,-7.1997,-7.208,-7.2108,-7.2176,-7.2196,-7.2259,-7.2218,-7.2254,-7.2263,-7.2273,-7.2285,-7.202,-7.2269,-7.2268,-7.2268,-7.2267,-7.2266,0,-7.185,-7.1868,-7.1932,-7.1989,-7.2044,-7.1997,-7.2038,-7.2086,-7.2161,-7.2192,-7.2245,-7.2328,-7.2392,-7.2397,-7.2457,-7.2507,-7.2487,-7.2523,-7.2519,-7.2523,-7.2319,-7.2291,-7.2538,-7.2538,-7.2538,-7.2538,-7.2538,-7.2538,-7.199,-7.2102,-7.2096,-7.222,-7.2235,-7.2318,-7.2345,-7.238,-7.2405,-7.2501,-7.2554,-7.2558,-7.2578,-7.2639,-7.2695,-7.2694,-7.2719,-7.2763,-7.2755,-7.2564,-7.2537,-7.2512,-7.2485,-7.2769,-7.2769,-7.2953,-7.2955,-7.2956]}]]